Tracking 21992 objects as of 26-Nov-2020
HD Live streaming from Space Station
objects crossing your sky now

LEMUR 2 JINDRA

Track LEMUR 2 JINDRA now!
10-day predictions
LEMUR 2 JINDRA is classified as:


NORAD ID: 46909
Int'l Code: 2020-081E
Perigee: 572.8 km
Apogee: 582.2 km
Inclination: 36.9 °
Period: 96.1 minutes
Semi major axis: 6948 km
RCS: Unknown
Launch date: November 7, 2020
Source: United States (US)
Launch site: SRIHARIKOTA (SRI)
aabbcc
Your satellite tracking list
Your tracking list is empty




NASA's NSSDC Master Catalog

Two Line Element Set (TLE):
1 46909U 20081E   20330.76203726 +.00001943 +00000-0 +16407-3 0  9998
2 46909 036.9036 351.2245 0006803 123.8594 236.2785 14.98878338002765
Source of the keplerian elements: AFSPC